Погода в Сильване

Турция     38°08′32″N   41°00′01″E
темп.,
°C
ветер,
м/с
пор.,
м/с
влажн.,
%
обл.,
%
осадки,
мм/ч
давл.,
гПа
погр.,
м
2 декабря, чт
чт200:00+4сз11875 0.0 101210
03:00+3сз22814 0.0 101315
06:00+3сз226899 0.0 101419
09:00+5ссз23610 0.0 1016119
12:00+8сз23440 0.0 1016666
15:00+10зсз23350 0.0 1016947
18:00+6ссз33440 0.0 101825
21:00+5с22510 0.0 102112
3 декабря, пт
пт300:00+4с22500 0.0 102210
03:00+3с11500 0.0 102210
06:00+2ссз11500 0.0 102310
09:00+5ссв11390 0.0 102548
12:00+9ю11310 0.0 1023544
15:00+10ююв11340 0.0 1022732
18:00+6ююз115099 0.0 102310
21:00+5с1149100 0.0 102310
4 декабря, сб
сб400:00+4ссз114732 0.0 102410
03:00+3ссз11471 0.0 102410
06:00+2с11490 0.0 102310
09:00+6ссв11406 0.0 102452
12:00+9юз0132100 0.0 1022540
15:00+10ююв1131100 0.0 1020587
18:00+6ю1149100 0.0 102110
21:00+5з1148100 0.0 102110
5 декабря, вс
вс500:00+4св11475 0.0 102110
03:00+4св1148100 0.0 102110
06:00+5ссв2246100 0.0 102012
09:00+7ссз1140100 0.0 102039
12:00+10ююв0129100 0.0 1018426
15:00+10всв1231100 0.0 1016407
18:00+7ссв1140100 0.0 101710
21:00+7сз2238100 0.0 101816
6 декабря, пн
пн600:00+7сз1137100 0.0 101810
03:00+6з11389 0.0 101810
06:00+5сз22385 0.0 102010
09:00+8сз12370 0.0 102134
12:00+11з12270 0.0 1020529
15:00+13з11270 0.0 1020797
18:00+8юз11450 0.0 102110
21:00+7ссз11470 0.0 102210